[[{"header":{"parameterUnit":"m.s-1","parameterCategory":1,"la1":30.2991,"la2":30.254,"lo1":-89.0895,"lo2":-89.0444,"dy":0.0017,"dx":0.0017,"nx":28,"ny":28,"refTime":"2024-05-30T09:00:00:Z","depth":0,"parameterNumber":2,"parameterNumberName":"U-component_of_WINDS"},"data":[0,0,0,0,0,0,0,0,0,0,0,0,0,0,0,0,0,0,0,0,0,0,0,0,0,0,0,0,0,0,0,0,0,0,0,0,0,0,0,0,0,0,0,0,0,0,0,0,0,0,0,0,0,0,0,0,0,0,-3.0253,-3.0253,0,-3.027,-3.027,-3.0271,-3.0152,-3.0149,-3.0146,-3.0143,-3.0168,-3.0171,-3.0175,0,0,0,0,0,0,0,0,0,0,0,0,0,-3.0123,-3.0126,-3.0252,-3.0253,-3.0253,-3.027,-3.027,-3.0271,-3.0153,-3.0149,-3.0145,-3.0141,-3.0166,-3.0171,-3.0176,0,0,0,0,0,0,0,0,0,0,0,0,0,-3.0164,-3.0127,-3.0252,-3.0196,-3.0191,-3.027,-3.027,-3.0271,-3.0154,-3.0149,-3.0144,-3.0139,-3.0165,-3.0171,-3.0176,-3.0312,0,0,-3.0194,-3.0196,0,0,0,0,0,0,0,0,-3.0162,-3.0169,-3.0204,-3.02,-3.0195,-3.0204,-3.0234,-3.0285,-3.0155,-3.0168,-3.0142,-3.0137,-3.0184,-3.0188,-3.0203,-3.0313,-3.0314,-3.0194,-3.0198,-3.02,-3.0202,0,0,0,0,0,0,0,-3.0159,-3.0168,-3.026,-3.0205,-3.0199,-3.0172,-3.0172,-3.0243,-3.0205,-3.0167,-3.0158,-3.0162,-3.0181,-3.0197,-3.0202,-3.0315,-3.0194,-3.0199,-3.0203,-3.0205,-3.0539,-3.0544,0,0,0,0,0,0,-3.0163,-3.0166,-3.0259,-3.026,-3.0165,-3.0179,-3.0179,-3.0206,-3.0203,-3.0198,-3.0166,-3.0156,-3.019,-3.0196,-3.0203,-3.0362,-3.02,-3.0205,-3.0209,-3.0534,-3.054,-3.0546,0,0,0,0,0,0,-3.0161,-3.0173,-3.0258,-3.0211,-3.022,-3.0186,-3.0218,-3.0209,-3.0225,-3.0203,-3.0196,-3.0189,-3.0186,-3.0195,-3.0285,-3.0361,-3.0208,-3.0213,-3.0527,-3.0536,-3.0543,-3.0682,0,0,0,0,0,0,-3.0158,-3.0172,-3.0222,-3.0213,-3.0223,-3.0339,-3.0222,-3.0213,-3.0235,-3.0222,-3.0223,-3.0218,-3.0183,-3.0278,-3.0291,-3.0366,-3.0217,-3.052,-3.0531,-3.054,-3.067,-3.0694,-3.0714,0,0,0,0,0,-3.0153,-3.0262,-3.0225,-3.0237,-3.0284,-3.0344,-3.0349,-3.0305,-3.0241,-3.0292,-3.0278,-3.0218,-3.0351,-3.0288,-3.0302,-3.038,-3.0515,-3.0528,-3.054,-3.066,-3.0689,-3.0713,0,0,0,0,0,0,-3.0283,-3.026,-3.0219,-3.0327,-3.0338,-3.0323,-3.0386,-3.0336,-3.0367,-3.0354,-3.03,-3.0301,-3.0401,-3.04,-3.033,-3.0512,-3.0422,-3.0438,-3.0509,-3.0536,-3.0557,-3.0556,-3.0222,0,0,0,0,0,-3.0324,-3.0373,-3.035,-3.0448,-3.0455,-3.042,-3.0445,-3.0409,-3.0419,-3.0424,-3.0416,-3.043,-3.0474,-3.0505,-3.0545,-3.067,-3.0669,-3.073,-3.0752,-3.077,-3.0785,-3.0851,-3.0878,-3.0586,-3.0586,-3.0586,0,0,-3.041,-3.0403,-3.0437,-3.0474,-3.0478,-3.0532,-3.0425,-3.0486,-3.0526,-3.0434,-3.0518,-3.0513,-3.0526,-3.0634,-3.0681,-3.0636,-3.0865,-3.0786,-3.08,-3.0805,-3.0866,-3.0894,-3.0919,-3.0595,-3.0593,-3.0592,0,0,-3.0593,-3.0592,-3.0673,-3.068,-3.0687,-3.0663,-3.0683,-3.0676,-3.0668,-3.0751,-3.0684,-3.0732,-3.081,-3.0821,-3.0837,-3.1026,-3.0973,-3.1041,-3.1154,-3.122,-3.1243,-3.1263,-3.1331,-3.1355,-3.1055,-3.1055,-3.1056,0,-3.0699,-3.0774,-3.0722,-3.0787,-3.0806,-3.0723,-3.0807,-3.0816,-3.0837,-3.0853,-3.0801,-3.0897,-3.09,-3.101,-3.1056,-3.1072,-3.1094,-3.104,-3.1243,-3.1263,-3.1281,-3.1345,-3.1371,-3.1063,-3.1063,-3.1062,-3.1061,0,-3.0905,-3.0959,-3.1024,-3.1044,-3.107,-3.1144,-3.1105,-3.1138,-3.1101,-3.1083,-3.1171,-3.117,-3.1209,-3.1233,-3.1198,-3.1339,-3.131,-3.1252,-3.116,-3.1318,-3.1377,-3.1401,-3.1075,-3.1072,-3.107,-3.1068,0,0,-3.117,-3.116,-3.1185,-3.1193,-3.1195,-3.1236,-3.1308,-3.1343,-3.1373,-3.1391,-3.1451,-3.1519,-3.1465,-3.1483,-3.1449,-3.1507,-3.1657,-3.1441,-3.1441,-3.1482,-3.1813,-3.1857,-3.1886,-3.1622,-3.1626,-3.163,-3.1812,0,-3.1349,-3.1467,-3.1423,-3.1545,-3.1595,-3.1518,-3.158,-3.159,-3.1575,-3.1617,-3.1602,-3.1651,-3.1576,-3.1587,-3.164,-3.1627,-3.1723,-3.1613,-3.1678,-3.1681,-3.1677,-3.1917,-3.1963,-3.2135,-3.1835,-3.1839,-3.1842,0,-3.1573,-3.1597,-3.1725,-3.1718,-3.1737,-3.1794,-3.1823,-3.1863,-3.1874,-3.1859,-3.188,-3.1834,-3.1905,-3.1814,-3.1913,-3.184,-3.1864,-3.1863,-3.1868,-3.1873,-3.1771,-3.1928,-3.2189,-3.2215,-3.1878,-3.1875,-3.1872,0,-3.1754,-3.1819,-3.1903,-3.1913,-3.1908,-3.1949,-3.195,-3.1954,-3.1978,-3.2005,-3.2021,-3.2057,-3.2077,-3.2106,-3.2072,-3.2008,-3.2177,-3.2082,-3.2169,-3.217,-3.2208,-3.2206,-3.2476,-3.2223,-3.2223,-3.2223,-3.2222,0,-3.1958,-3.2039,-3.1984,-3.2037,-3.2126,-3.2075,-3.2165,-3.2157,-3.2162,-3.2213,-3.2149,-3.2199,-3.215,-3.2196,-3.217,-3.2257,-3.2266,-3.2258,-3.225,-3.2264,-3.2265,-3.2279,-3.2266,-3.2229,-3.2228,-3.2226,-3.2225,0,-3.2176,-3.2142,-3.2229,-3.2216,-3.2215,-3.2281,-3.2272,-3.2321,-3.2301,-3.2367,-3.2379,-3.2351,-3.2401,-3.237,-3.2422,-3.2404,-3.2518,-3.2493,-3.2514,-3.2507,-3.2595,-3.2588,-3.2885,-3.2921,-3.2645,-3.2647,-3.265,0,-3.2308,-3.2368,-3.2362,-3.239,-3.2393,-3.244,-3.2464,-3.2417,-3.2445,-3.2461,-3.2509,-3.2554,-3.2587,-3.2672,-3.2658,-3.2698,-3.2674,-3.2775,-3.268,-3.2692,-3.2676,-3.2673,-3.2679,-3.2795,-3.2798,-3.2801,-3.2803,0,-3.2547,-3.2527,-3.2563,-3.2594,-3.2624,-3.2646,-3.2664,-3.2691,-3.2644,-3.2679,-3.2729,-3.2755,-3.2807,-3.2853,-3.2887,-3.289,-3.284,-3.2833,-3.2855,-3.287,-3.2879,-3.2876,-3.2567,-3.2827,-3.2824,-3.2823,-3.2821,-3.282,-3.2726,-3.2776,-3.2779,-3.2821,-3.2829,-3.2847,-3.2892,-3.2878,-3.2918,-3.2955,-3.2926,-3.2986,-3.2996,-3.3035,-3.3045,-3.3092,-3.3052,-3.3084,-3.3092,-3.3101,-3.3113,-3.2872,-3.3099,-3.3098,-3.3097,-3.3097,-3.3096,0,-3.2962,-3.296,-3.2999,-3.3025,-3.3059,-3.3006,-3.3023,-3.3056,-3.3108,-3.312,-3.3154,-3.3212,-3.3256,-3.3245,-3.3286,-3.3326,-3.3305,-3.3339,-3.3335,-3.3337,-3.3147,-3.3123,-3.3356,-3.3356,-3.3355,-3.3355,-3.3355,-3.3355,-3.3089,-3.317,-3.3152,-3.3237,-3.3235,-3.3291,-3.3306,-3.3323,-3.3332,-3.3399,-3.3434,-3.3426,-3.3429,-3.347,-3.3509,-3.3505,-3.3523,-3.3566,-3.3554,-3.3376,-3.335,-3.3326,-3.3304,-3.357,-3.357,-3.374,-3.3741,-3.3743]},{"header":{"parameterUnit":"m.s-1","parameterCategory":1,"la1":30.2991,"la2":30.254,"lo1":-89.0895,"lo2":-89.0444,"dy":0.0017,"dx":0.0017,"nx":28,"ny":28,"refTime":"2024-05-30T09:00:00:Z","depth":0,"parameterNumber":3,"parameterNumberName":"V-component_of_WINDS"},"data":[0,0,0,0,0,0,0,0,0,0,0,0,0,0,0,0,0,0,0,0,0,0,0,0,0,0,0,0,0,0,0,0,0,0,0,0,0,0,0,0,0,0,0,0,0,0,0,0,0,0,0,0,0,0,0,0,0,0,1.7684,1.7684,0,1.7728,1.7729,1.7729,1.7768,1.7769,1.7769,1.777,1.7813,1.7813,1.7814,0,0,0,0,0,0,0,0,0,0,0,0,0,1.763,1.7631,1.7684,1.7684,1.7685,1.7728,1.7729,1.773,1.7768,1.7769,1.7769,1.777,1.7813,1.7813,1.7814,0,0,0,0,0,0,0,0,0,0,0,0,0,1.7662,1.7631,1.7684,1.7709,1.7712,1.7728,1.7729,1.773,1.7768,1.7769,1.777,1.777,1.7812,1.7813,1.7814,1.7808,0,0,1.7818,1.7818,0,0,0,0,0,0,0,0,1.766,1.7664,1.7705,1.7708,1.7711,1.7744,1.7726,1.7756,1.7768,1.7747,1.777,1.777,1.7789,1.7792,1.7799,1.781,1.7811,1.7818,1.7818,1.7819,1.7819,0,0,0,0,0,0,0,1.7658,1.7662,1.7701,1.7706,1.7709,1.7718,1.7724,1.7732,1.7763,1.7749,1.7752,1.7757,1.7791,1.7798,1.78,1.7812,1.7818,1.7819,1.7819,1.782,1.782,1.782,0,0,0,0,0,0,1.7652,1.766,1.77,1.7703,1.7687,1.7719,1.7725,1.7732,1.7764,1.7769,1.7756,1.7758,1.7796,1.7799,1.7802,1.7797,1.7819,1.782,1.7821,1.7821,1.782,1.782,0,0,0,0,0,0,1.7651,1.7655,1.7698,1.7682,1.7688,1.7719,1.7727,1.7733,1.774,1.7769,1.7775,1.7757,1.7796,1.78,1.7806,1.7799,1.782,1.7821,1.7822,1.7821,1.782,1.7785,0,0,0,0,0,0,1.7649,1.7654,1.7652,1.7682,1.7689,1.7702,1.7727,1.7733,1.7742,1.7745,1.7772,1.7777,1.7797,1.7804,1.7807,1.78,1.7822,1.7823,1.7821,1.782,1.7787,1.7783,1.778,0,0,0,0,0,1.7647,1.764,1.7652,1.7657,1.7687,1.7702,1.7706,1.773,1.7741,1.7739,1.7758,1.7776,1.7799,1.7805,1.7808,1.7802,1.7823,1.7822,1.782,1.7789,1.7784,1.778,0,0,0,0,0,0,1.7608,1.7644,1.7658,1.7661,1.7678,1.7708,1.7707,1.7724,1.7737,1.774,1.7768,1.7774,1.7777,1.779,1.7796,1.7797,1.7814,1.7813,1.7788,1.7784,1.778,1.7777,1.7823,0,0,0,0,0,1.76,1.7609,1.764,1.764,1.7648,1.7676,1.7683,1.77,1.7718,1.7725,1.7745,1.7761,1.7773,1.7779,1.7791,1.779,1.7796,1.7787,1.7783,1.778,1.7779,1.778,1.7776,1.7815,1.7815,1.7815,0,0,1.7582,1.7604,1.7608,1.7632,1.7648,1.7656,1.7681,1.7689,1.7695,1.7726,1.7734,1.7748,1.7769,1.7771,1.7773,1.7782,1.777,1.7778,1.7775,1.7776,1.7778,1.7774,1.7771,1.7814,1.7814,1.7814,0,0,1.7556,1.7573,1.7575,1.759,1.7613,1.7632,1.7632,1.766,1.7672,1.768,1.7703,1.7711,1.773,1.7743,1.7753,1.7733,1.775,1.7736,1.7716,1.7717,1.7714,1.7711,1.7704,1.7701,1.7735,1.7734,1.7734,0,1.7531,1.7546,1.7573,1.758,1.759,1.762,1.7622,1.7635,1.766,1.7666,1.7676,1.7701,1.7717,1.7723,1.7718,1.7725,1.7726,1.7733,1.7712,1.771,1.7708,1.7701,1.7699,1.7733,1.7733,1.7733,1.7733,0,1.7515,1.7524,1.7523,1.7548,1.7558,1.7562,1.759,1.7597,1.7613,1.7631,1.7639,1.7659,1.7676,1.7679,1.7694,1.7688,1.7693,1.7707,1.7724,1.7702,1.7696,1.7694,1.773,1.7731,1.7731,1.7732,0,0,1.7464,1.7505,1.7504,1.7516,1.7545,1.7552,1.7558,1.7576,1.7581,1.7598,1.7603,1.7618,1.7632,1.7643,1.7661,1.7661,1.7644,1.7676,1.7677,1.7669,1.7639,1.7628,1.7624,1.7656,1.7656,1.7656,1.7637,0,1.7442,1.7454,1.748,1.7484,1.7493,1.7522,1.7527,1.7545,1.7562,1.7572,1.759,1.7601,1.7618,1.7625,1.7627,1.7646,1.7639,1.7648,1.7661,1.7661,1.7655,1.7622,1.761,1.7591,1.7635,1.7635,1.7634,0,1.7418,1.7434,1.744,1.7469,1.7473,1.7477,1.7496,1.7505,1.7526,1.7538,1.7551,1.7571,1.7578,1.7594,1.7604,1.761,1.7617,1.7627,1.7627,1.7629,1.7646,1.7623,1.7586,1.7583,1.7631,1.7632,1.7632,0,1.738,1.7403,1.741,1.742,1.7453,1.7456,1.7469,1.7491,1.75,1.7516,1.7523,1.7539,1.7547,1.7559,1.7583,1.7593,1.7591,1.7609,1.7601,1.76,1.7599,1.7599,1.7563,1.7604,1.7604,1.7604,1.7604,0,1.7353,1.7355,1.7394,1.7398,1.7402,1.743,1.7433,1.7449,1.7469,1.7476,1.7502,1.7508,1.7539,1.7549,1.7568,1.7574,1.7577,1.7587,1.7592,1.7585,1.7584,1.759,1.7592,1.7603,1.7603,1.7603,1.7603,0,1.7311,1.7337,1.7347,1.7378,1.7386,1.7388,1.7415,1.7419,1.7438,1.7448,1.7451,1.7481,1.7494,1.7519,1.7539,1.7551,1.7553,1.7562,1.7546,1.7549,1.754,1.7541,1.7507,1.7504,1.7546,1.7546,1.7546,0,1.7292,1.7295,1.7327,1.7335,1.7348,1.7359,1.737,1.7398,1.7407,1.7432,1.7434,1.7449,1.7463,1.7483,1.7505,1.7521,1.753,1.7517,1.7532,1.7525,1.753,1.753,1.753,1.7513,1.7513,1.7512,1.7512,0,1.7256,1.7269,1.7282,1.7301,1.7312,1.7328,1.7345,1.7349,1.7382,1.7391,1.7405,1.7416,1.7437,1.7452,1.7471,1.7485,1.7504,1.7507,1.7506,1.7499,1.749,1.7495,1.7537,1.7508,1.7508,1.7508,1.7509,1.7509,1.7225,1.7229,1.7253,1.7267,1.7284,1.7299,1.7305,1.7326,1.7339,1.7358,1.7374,1.7388,1.7409,1.7437,1.745,1.746,1.7469,1.7467,1.7467,1.7466,1.7464,1.7488,1.7464,1.7464,1.7464,1.7464,1.7464,0,1.719,1.7207,1.722,1.7244,1.7255,1.7273,1.7293,1.7301,1.7313,1.7332,1.7345,1.7362,1.7377,1.7401,1.7418,1.7422,1.7431,1.7425,1.7425,1.7428,1.7455,1.7454,1.7418,1.7418,1.7418,1.7418,1.7418,1.7418,1.7173,1.7181,1.7197,1.7213,1.723,1.7244,1.7254,1.7269,1.7284,1.7302,1.7315,1.7331,1.7352,1.7371,1.7385,1.7392,1.7397,1.7389,1.7398,1.7422,1.7426,1.7431,1.743,1.739,1.739,1.7372,1.7371,1.7371]}]]